Redmond, OR

12:43 AM PST on December 12, 2019 (GMT -0800)
Roberts Field Airport

Weather History for KRDM - July, 2019

Change the Weather History Date:

Sunday, July 21, 2019

  Actual Average Record
Temperature  
Mean Temperature 68 °F 67 °F  
Max Temperature 91 °F 87 °F 102 °F (2006)
Min Temperature 44 °F 47 °F 36 °F (1954)
Degree Days  
Heating Degree Days 0 2  
Month to date heating degree days 32 57  
Since 1 June heating degree days 181 274  
Since 1 July heating degree days 32 57  
Cooling Degree Days 3 4  
Month to date cooling degree days 32 60  
Year to date cooling degree days 60 89  
Since 1 June cooling degree days 60 84  
Growing Degree Days 18 (Base 50)    
Moisture  
Dew Point 35 °F    
Average Humidity 37    
Maximum Humidity 58    
Minimum Humidity 16    
Precipitation  
Precipitation 0.00 in 0.02 in 0.58 in (1987)
Month to date precipitation 0.22 0.38  
Year to date precipitation 7.46 5.06  
Sea Level Pressure  
Sea Level Pressure 29.96 in    
Wind  
Wind Speed 7 mph (NW)    
Max Wind Speed 20 mph    
Max Gust Speed 24 mph    
Visibility 10 miles    
Events      
T = Trace of Precipitation, MM = Missing Value Source: NWS Daily Summary

Daily Weather History Graph

Daily Weather History Graph

Search for Another Location

Airport or City:

Astronomy

Jul. 21, 2019 Rise Set
Actual Time 5:40 AM PDT 8:41 PM PDT
Civil Twilight 5:05 AM PDT 9:15 PM PDT
Nautical Twilight 4:21 AM PDT 9:59 PM PDT
Astronomical Twilight 3:28 AM PDT 10:51 PM PDT
Moon 11:28 PM PDT (7/21) 10:13 AM PDT (7/21)
Length of Visible Light 16h 09m
Length of Day
15h 00m
Waning Gibbous, 79% of the Moon is Illuminated
Jul 21
Waning Gibbous
Jul 24
Last Quarter
Jul 31
New
Aug 7
First Quarter
Aug 15
Full

Hourly Weather History & Observations

Time (PDT) Temp. Windchill Dew Point Humidity Pressure Visibility Wind Dir Wind Speed Gust Speed Precip Events Conditions
12:56 AM 61.0 °F - 33.1 °F 35% 29.98 in 10.0 mi WNW 6.9 mph - N/A   Clear
1:56 AM 60.1 °F - 32.0 °F 35% 29.97 in 10.0 mi West 8.1 mph - N/A   Clear
2:56 AM 48.9 °F - 30.9 °F 50% 30.00 in 10.0 mi SE 4.6 mph - N/A   Clear
3:56 AM 48.9 °F - 30.9 °F 50% 29.99 in 10.0 mi Calm Calm - N/A   Clear
4:56 AM 45.0 °F 41.8 °F 30.0 °F 56% 30.01 in 10.0 mi SSE 5.8 mph - N/A   Clear
5:56 AM 46.0 °F 43.9 °F 30.0 °F 54% 30.01 in 10.0 mi South 4.6 mph - N/A   Clear
6:56 AM 53.1 °F - 33.1 °F 47% 30.01 in 10.0 mi Calm Calm - N/A   Clear
7:56 AM 60.1 °F - 34.0 °F 38% 30.01 in 10.0 mi Calm Calm - N/A   Clear
8:56 AM 66.0 °F - 33.1 °F 29% 30.01 in 10.0 mi Calm Calm - N/A   Clear
9:56 AM 70.0 °F - 34.0 °F 27% 30.01 in 10.0 mi WSW 4.6 mph - N/A   Clear
10:56 AM 75.0 °F - 35.1 °F 23% 29.99 in 10.0 mi NNW 5.8 mph - N/A   Clear
11:56 AM 79.0 °F - 36.0 °F 21% 29.98 in 10.0 mi Calm Calm - N/A   Clear
12:56 PM 82.0 °F - 35.1 °F 18% 29.96 in 10.0 mi Variable 3.5 mph - N/A   Clear
1:56 PM 84.9 °F - 36.0 °F 17% 29.94 in 10.0 mi Variable 6.9 mph - N/A   Clear
2:56 PM 89.1 °F - 37.0 °F 16% 29.93 in 10.0 mi NNW 9.2 mph - N/A   Clear
3:56 PM 89.1 °F - 37.9 °F 16% 29.91 in 10.0 mi NNW 13.8 mph - N/A   Clear
4:56 PM 90.0 °F - 37.9 °F 16% 29.90 in 10.0 mi NNW 16.1 mph - N/A   Clear
5:56 PM 89.1 °F - 37.9 °F 16% 29.88 in 10.0 mi NNW 13.8 mph - N/A   Clear
6:56 PM 88.0 °F - 37.9 °F 17% 29.88 in 10.0 mi North 16.1 mph - N/A   Clear
7:56 PM 84.0 °F - 39.0 °F 20% 29.88 in 10.0 mi NNW 11.5 mph - N/A   Clear
8:56 PM 78.1 °F - 39.9 °F 25% 29.90 in 10.0 mi NNW 9.2 mph - N/A   Clear
9:56 PM 75.0 °F - 39.0 °F 27% 29.93 in 10.0 mi NW 5.8 mph - N/A   Clear
10:56 PM 72.0 °F - 39.0 °F 30% 29.93 in 10.0 mi WNW 3.5 mph - N/A   Clear
11:56 PM 70.0 °F - 39.0 °F 32% 29.93 in 10.0 mi WNW 8.1 mph - N/A   Clear